This is the latest recevied weather packets stored in our database for station/object K7KAR-2. If no packets are shown the sender has not sent any weather packets the latest 10 day(s).
| Time | Temp. | Humidity | Pressure | Rain* | Wind** | Luminosity | Snow |
|---|---|---|---|---|---|---|---|
| 1787929915 | 18.89° C | 63% | 1015.4 hPa | 0 mm | - | 114 W/m² | - |
| 1787929615 | 18.89° C | 64% | 1015.4 hPa | 0 mm | - | 84 W/m² | - |
| 1787929315 | 18.33° C | 65% | 1014.9 hPa | 0 mm | - | 70 W/m² | - |
| 1787929013 | 18.33° C | 64% | 1014.9 hPa | 0 mm | - | 73 W/m² | - |
| 1787928708 | 18.33° C | 65% | 1014.9 hPa | 0 mm | - | 84 W/m² | - |
| 1787928406 | 18.33° C | 65% | 1015 hPa | 0 mm | - | 87 W/m² | - |
| 1787928104 | 18.33° C | 66% | 1014.9 hPa | 0 mm | - | 91 W/m² | - |
| 1787927799 | 17.78° C | 66% | 1014.9 hPa | 0 mm | - | 93 W/m² | - |
| 1787927494 | 17.78° C | 68% | 1015.3 hPa | 0 mm | - | 83 W/m² | - |
| 1787927189 | 17.78° C | 68% | 1015.4 hPa | 0 mm | - | 74 W/m² | - |
| 1787926884 | 17.78° C | 70% | 1014.9 hPa | 0 mm | - | 64 W/m² | - |
| 1787926578 | 17.78° C | 71% | 1014.7 hPa | 0 mm | - | 71 W/m² | - |
| 1787926277 | 17.22° C | 71% | 1014.7 hPa | 0 mm | - | 68 W/m² | - |
| 1787925972 | 17.22° C | 71% | 1014.8 hPa | 0 mm | - | 61 W/m² | - |
| 1787925667 | 17.22° C | 72% | 1014.8 hPa | 0 mm | - | 57 W/m² | - |
| 1787925356 | 17.22° C | 71% | 1014.6 hPa | 0 mm | - | 49 W/m² | - |
| 1787925055 | 17.22° C | 72% | 1014.8 hPa | 0 mm | - | 45 W/m² | - |
| 1787924755 | 17.22° C | 71% | 1014.6 hPa | 0 mm | - | 40 W/m² | - |
| 1787924449 | 17.22° C | 71% | 1014.7 hPa | 0 mm | - | 41 W/m² | - |
| 1787924144 | 17.22° C | 71% | 1014.8 hPa | 0 mm | - | 38 W/m² | - |
| 1787923839 | 16.67° C | 71% | 1014.9 hPa | 0 mm | - | 38 W/m² | - |
| 1787923539 | 16.67° C | 72% | 1014.8 hPa | 0 mm | - | 33 W/m² | - |
| 1787923234 | 16.67° C | 72% | 1014.4 hPa | 0 mm | - | 27 W/m² | - |
| 1787922930 | 16.67° C | 73% | 1014.1 hPa | 0 mm | - | 23 W/m² | - |
| 1787922629 | 16.67° C | 73% | 1014.1 hPa | 0 mm | - | 19 W/m² | - |
* Rain latest hour (hover to see other rain measurements)
** Current wind speed in m/s (hover to see current wind gust speed)